This is the latest recevied weather packets stored in our database for station/object KD4WLE. If no packets are shown the sender has not sent any weather packets the latest 10 day(s).
| Time | Temp. | Humidity | Pressure | Rain* | Wind** | Luminosity | Snow |
|---|---|---|---|---|---|---|---|
| 1777938701 | 22.78° C | 73% | 1016.2 hPa | 0 mm | - | 8 W/m² | - |
| 1777938398 | 22.78° C | 73% | 1016.2 hPa | 0 mm | - | 12 W/m² | - |
| 1777938090 | 22.78° C | 72% | 1016.2 hPa | 0 mm | - | 16 W/m² | - |
| 1777937785 | 22.78° C | 71% | 1016.2 hPa | 0 mm | - | 20 W/m² | - |
| 1777937481 | 23.33° C | 70% | 1016.2 hPa | 0 mm | - | 26 W/m² | - |
| 1777937180 | 23.33° C | 69% | 1016.2 hPa | 0 mm | - | 31 W/m² | - |
| 1777936876 | 23.89° C | 68% | 1016.4 hPa | 0 mm | - | 44 W/m² | - |
| 1777936572 | 23.33° C | 69% | 1016.2 hPa | 0 mm | - | 50 W/m² | - |
| 1777936263 | 23.89° C | 68% | 1016.3 hPa | 0 mm | - | 58 W/m² | - |
| 1777935959 | 23.89° C | 67% | 1016.2 hPa | 0 mm | - | 69 W/m² | - |
| 1777935659 | 23.89° C | 67% | 1016.4 hPa | 0 mm | - | 79 W/m² | - |
| 1777935356 | 23.89° C | 67% | 1016.4 hPa | 0 mm | - | 85 W/m² | - |
| 1777935052 | 23.89° C | 67% | 1016.5 hPa | 0 mm | - | 52 W/m² | - |
| 1777934749 | 23.89° C | 67% | 1016.4 hPa | 0 mm | - | 58 W/m² | - |
| 1777934446 | 24.44° C | 66% | 1016.2 hPa | 0 mm | - | 79 W/m² | - |
| 1777934143 | 24.44° C | 66% | 1016.1 hPa | 0 mm | - | 109 W/m² | - |
| 1777933839 | 24.44° C | 65% | 1016.1 hPa | 0 mm | - | 151 W/m² | - |
| 1777933536 | 24.44° C | 65% | 1016.2 hPa | 0 mm | - | 118 W/m² | - |
| 1777933233 | 25° C | 64% | 1016.2 hPa | 0 mm | - | 225 W/m² | - |
| 1777932930 | 24.44° C | 66% | 1016.3 hPa | 0 mm | - | 224 W/m² | - |
| 1777932627 | 24.44° C | 66% | 1016.3 hPa | 0 mm | - | 241 W/m² | - |
| 1777932324 | 25° C | 65% | 1016.2 hPa | 0 mm | - | 124 W/m² | - |
| 1777932021 | 25.56° C | 64% | 1016.1 hPa | 0 mm | - | 293 W/m² | - |
| 1777931717 | 24.44° C | 64% | 1016.1 hPa | 0 mm | - | 315 W/m² | - |
| 1777931415 | 24.44° C | 65% | 1016.3 hPa | 0 mm | - | 304 W/m² | - |
* Rain latest hour (hover to see other rain measurements)
** Current wind speed in m/s (hover to see current wind gust speed)